N9DRW Weather Reports


Display with metric or nautical units.
time (UTC)temp
F
wind
direction
speed
MPH
gust
MPH
rain 1hr
in
rain 24hr
in
rain mn
in
humidity
%
barometer
mb
20260509091206 54 233 1.0 5.0 0.00 0.00 0.00 72
20260509090206 55 240 2.0 5.0 0.00 0.00 0.00 71
20260509085206 55 229 2.0 6.0 0.00 0.00 0.00 73
20260509084206 56 229 2.0 10.0 0.00 0.00 0.00 73
20260509083209 56 278 5.0 8.0 0.00 0.00 0.00 74
20260509082206 56 287 3.0 7.0 0.00 0.00 0.00 75
20260509081205 56 233 2.0 8.0 0.00 0.00 0.00 73
20260509080206 56 257 5.0 12.0 0.00 0.00 0.00 73
20260509075205 57 280 3.0 16.0 0.00 0.00 0.00 72
20260509074205 57 282 5.0 12.0 0.00 0.00 0.00 70
20260509073205 57 262 3.0 9.0 0.00 0.00 0.00 69
20260509072205 57 256 4.0 10.0 0.00 0.00 0.00 68
20260509070205 58 264 4.0 12.0 0.00 0.00 0.00 65
20260509065206 58 246 6.0 17.0 0.00 0.00 0.00 63
20260509064206 58 242 6.0 12.0 0.00 0.00 0.00 62
20260509062206 59 253 6.0 14.0 0.00 0.00 0.00 59
20260509060206 59 262 6.0 12.0 0.00 0.00 0.00 56
20260509055206 59 268 5.0 12.0 0.00 0.00 0.00 54
20260509053206 60 227 6.0 12.0 0.00 0.00 0.00 51
20260509052205 61 224 5.0 10.0 0.00 0.00 0.00 51
20260509051205 61 247 4.0 12.0 0.00 0.00 0.00 50
20260509050206 62 242 5.0 17.0 0.00 0.00 0.00 48
20260509045206 62 229 6.0 10.0 0.00 0.00 0.00 46
20260509044206 62 233 5.0 14.0 0.00 0.00 0.00 44
20260509043209 63 220 3.0 14.0 0.00 0.00 0.00 44
20260509042205 63 260 6.0 14.0 0.00 0.00 0.00 44
20260509041206 63 270 4.0 12.0 0.00 0.00 0.00 41
20260509035206 61 231 5.0 10.0 0.00 0.00 0.00 45
20260509034206 61 230 4.0 9.0 0.00 0.00 0.00 45
20260509033206 61 243 4.0 10.0 0.00 0.00 0.00 44
20260509032206 61 224 2.0 8.0 0.00 0.00 0.00 42
20260509031206 61 232 3.0 8.0 0.00 0.00 0.00 39
20260509030205 61 155 1.0 5.0 0.00 0.00 0.00 37
20260509025206 61 237 1.0 6.0 0.00 0.00 0.00 36
20260509024206 61 215 1.0 6.0 0.00 0.00 0.00 37
20260509023206 62 231 2.0 6.0 0.00 0.00 0.00 35
20260509022206 62 251 1.0 6.0 0.00 0.00 0.00 36
20260509021206 62 193 1.0 3.0 0.00 0.00 0.00 35
20260509020206 62 220 1.0 3.0 0.00 0.00 0.00 36
20260509015206 62 239 1.0 5.0 0.00 0.00 0.00 36
20260509014206 63 230 1.0 3.0 0.00 0.00 0.00 35
20260509013206 62 157 1.0 5.0 0.00 0.00 0.00 34
20260509012205 63 277 1.0 2.0 0.00 0.00 0.00 36
20260509011206 64 224 0.0 1.0 0.00 0.00 0.00 34
20260509010206 65 216 0.0 2.0 0.00 0.00 0.00 31
20260509005206 65 220 0.0 3.0 0.00 0.00 0.00 30
20260509004206 66 251 1.0 5.0 0.00 0.00 0.00 29
20260509003209 66 213 3.0 6.0 0.00 0.00 0.00 28
20260509002205 67 236 3.0 8.0 0.00 0.00 0.00 28
20260509001206 67 254 5.0 9.0 0.00 0.00 0.00 27
20260509000206 68 275 3.0 10.0 0.00 0.00 0.00 26
20260508235205 68 225 3.0 9.0 0.00 0.00 0.00 26
20260508234205 68 264 3.0 10.0 0.00 0.00 0.00 25
20260508232206 69 238 5.0 13.0 0.00 0.00 0.00 25
20260508231206 69 259 3.0 13.0 0.00 0.00 0.00 24
20260508230206 69 298 5.0 14.0 0.00 0.00 0.00 24
20260508225205 69 238 6.0 15.0 0.00 0.00 0.00 23
20260508224206 69 252 5.0 16.0 0.00 0.00 0.00 24
20260508223205 69 237 4.0 12.0 0.00 0.00 0.00 24
20260508222205 68 261 7.0 13.0 0.00 0.00 0.00 24
20260508221206 68 284 7.0 15.0 0.00 0.00 0.00 25
20260508214206 69 236 5.0 14.0 0.00 0.00 0.00 23
20260508213206 68 319 4.0 12.0 0.00 0.00 0.00 22
20260508212206 69 283 7.0 15.0 0.00 0.00 0.00 21
20260508211205 68 275 8.0 16.0 0.00 0.00 0.00 23
20260508210206 68 259 3.0 13.0 0.00 0.00 0.00 23
20260508205206 69 267 8.0 14.0 0.00 0.00 0.00 22
20260508204205 69 231 3.0 15.0 0.00 0.00 0.00 24
20260508202213 69 254 7.0 15.0 0.00 0.00 0.00 22
20260508201206 68 283 6.0 16.0 0.00 0.00 0.00 22
20260508200206 68 285 5.0 12.0 0.00 0.00 0.00 22
20260508195206 68 235 6.0 15.0 0.00 0.00 0.00 21
20260508194205 69 298 4.0 9.0 0.00 0.00 0.00 22
20260508193206 68 298 6.0 16.0 0.00 0.00 0.00 22
20260508192205 68 244 7.0 14.0 0.00 0.00 0.00 21
20260508191206 68 287 5.0 14.0 0.00 0.00 0.00 20
20260508190206 68 226 5.0 14.0 0.00 0.00 0.00 22
20260508185205 69 238 5.0 12.0 0.00 0.00 0.00 23
20260508184205 68 255 3.0 12.0 0.00 0.00 0.00 24
20260508183206 67 297 7.0 17.0 0.00 0.00 0.00 22
20260508182206 68 335 4.0 12.0 0.00 0.00 0.00 21
20260508181206 68 290 3.0 15.0 0.00 0.00 0.00 23
20260508180206 67 239 6.0 14.0 0.00 0.00 0.00 23
20260508175206 66 324 3.0 13.0 0.00 0.00 0.00 24
20260508174206 67 271 6.0 13.0 0.00 0.00 0.00 21
20260508173206 66 277 5.0 13.0 0.00 0.00 0.00 23
20260508172206 67 24 3.0 15.0 0.00 0.00 0.00 22
20260508171206 65 212 2.0 8.0 0.00 0.00 0.00 22
20260508170206 65 281 6.0 13.0 0.00 0.00 0.00 21
20260508165206 65 177 5.0 10.0 0.00 0.00 0.00 22
20260508162206 63 288 6.0 10.0 0.00 0.00 0.00 26
20260508161206 63 241 4.0 13.0 0.00 0.00 0.00 25
20260508160205 63 238 5.0 10.0 0.00 0.00 0.00 26
20260508155206 62 239 5.0 13.0 0.00 0.00 0.00 27
20260508154206 62 250 5.0 10.0 0.00 0.00 0.00 26
20260508153206 62 227 6.0 10.0 0.00 0.00 0.00 28
20260508152205 61 280 4.0 8.0 0.00 0.00 0.00 30
20260508151206 60 257 5.0 12.0 0.00 0.00 0.00 28
20260508150206 61 220 5.0 9.0 0.00 0.00 0.00 33
20260508145206 60 218 3.0 10.0 0.00 0.00 0.00 33
20260508143206 60 203 5.0 9.0 0.00 0.00 0.00 32
20260508142206 59 200 2.0 6.0 0.00 0.00 0.00 37
20260508141206 57 196 3.0 9.0 0.00 0.00 0.00 40
20260508140205 56 219 2.0 7.0 0.00 0.00 0.00 42
20260508135206 55 233 4.0 9.0 0.00 0.00 0.00 46
20260508134205 54 201 2.0 9.0 0.00 0.00 0.00 48
20260508133206 53 225 4.0 8.0 0.00 0.00 0.00 49
20260508132205 51 255 3.0 8.0 0.00 0.00 0.00 51
20260508131205 50 226 4.0 8.0 0.00 0.00 0.00 53
20260508130206 49 231 6.0 9.0 0.00 0.00 0.00 55
20260508125206 48 230 5.0 8.0 0.00 0.00 0.00 58
20260508124206 47 229 3.0 7.0 0.00 0.00 0.00 62
20260508123209 46 234 3.0 7.0 0.00 0.00 0.00 62
20260508122206 46 237 3.0 7.0 0.00 0.00 0.00 64
20260508120206 45 240 2.0 7.0 0.00 0.00 0.00 66
20260508115205 44 240 3.0 7.0 0.00 0.00 0.00 67
20260508114205 43 169 1.0 5.0 0.00 0.00 0.00 68
20260508113205 42 203 1.0 5.0 0.00 0.00 0.00 70
20260508112206 42 343 0.0 2.0 0.00 0.00 0.00 70
20260508111205 41 29 0.0 1.0 0.00 0.00 0.00 71
20260508110206 41 59 0.0 2.0 0.00 0.00 0.00 71
20260508105206 41 201 0.0 2.0 0.00 0.00 0.00 70
20260508104206 41 50 0.0 2.0 0.00 0.00 0.00 69
20260508103206 41 229 0.0 1.0 0.00 0.00 0.00 68
20260508102205 41 26 1.0 2.0 0.00 0.00 0.00 67
20260508100206 42 105 0.0 1.0 0.00 0.00 0.00 64
20260508095205 42 133 0.0 3.0 0.00 0.00 0.00 64
20260508094206 42 240 1.0 5.0 0.00 0.00 0.00 64
20260508093206 42 36 0.0 1.0 0.00 0.00 0.00 61
20260508092205 43 302 0.0 1.0 0.00 0.00 0.00 61